Home > Weather > Curitiba > Past weeks

Flag for Brazil Past Weather in Curitiba, Paraná, Brazil — Yesterday and Last 2 Weeks

Now
59 °F

Mostly cloudy.


Feels Like: 59 °F
Forecast: 56 / 62 °F
Wind: 5 mph from Northeast

Location: Curitiba Aeroporto

Current Time: May 27, 2016 at 3:18:29 PM

Latest Report: May 27, 2016 at 3:00 PM


Visibility: N/A

Pressure: 30.18 "Hg (27.08 "Hg at 915m altitude)

Humidity: 88%

Dew Point: 55 °F

Location of CuritibaLocation

Past Weather in Curitiba — Graph

°F

Curitiba Temperature Yesterday

Maximum temperature yesterday: 70 °F (at 3:00 PM)
Minimum temperature yesterday: 52 °F (at 3:00 AM)
Average temperature yesterday: 59 °F

High & Low Weather Summary for the Past Weeks

 TemperatureHumidityPressure
High75 °F (May 15, 3:00 PM)100% (May 12, 8:00 PM)30.42 "Hg (May 12, 8:00 PM)
Low45 °F (May 18, 1:00 AM)32% (May 17, 3:00 PM)29.89 "Hg (May 16, 5:00 AM)
Average58 °F86%30.18 "Hg
* Reported May 12 2:00 PM — May 27 2:00 PM, Curitiba, Weather by CustomWeather, © 2016

Note: Actual official high and low records may vary slightly from our data, if they occured in-between our weather recording intervals... More about our weather records

Advertising

Curitiba Weather History for the Previous 24 Hours

Scroll right to see more
 ConditionsComfort  
Time TempWeatherWind HumidityBarometerVisibility
2:00 PM
Fri, May 27
61 °FMostly cloudy.5 mph83%30.18 "HgN/A
1:00 PM61 °FMostly cloudy.5 mph88%30.21 "HgN/A
12:00 PM61 °FMore clouds than sun.No wind88%30.21 "HgN/A
11:00 AM59 °FMore clouds than sun.2 mph94%30.21 "HgN/A
10:00 AM57 °FMostly cloudy.3 mph100%30.24 "Hg4 mi
9:00 AM57 °FFog.2 mph94%30.21 "Hg3 mi
8:00 AM57 °FFog.3 mph94%30.18 "Hg2 mi
7:00 AM55 °FFog.5 mph100%30.15 "Hg3 mi
6:00 AM55 °FPartly sunny.3 mph100%30.15 "Hg5 mi
5:00 AM55 °FPassing clouds.5 mph94%30.15 "HgN/A
4:00 AM57 °FLight rain. Mostly cloudy.6 mph94%30.15 "Hg5 mi
3:00 AM59 °FLight rain. Low clouds.2 mph94%30.18 "Hg3 mi
2:00 AM59 °FMostly cloudy.3 mph94%30.18 "HgN/A
1:00 AM59 °FMostly cloudy.3 mph94%30.18 "Hg5 mi
12:00 AM59 °FFog.3 mph94%30.18 "Hg2 mi
11:00 PM
Thu, May 26
59 °FLight rain. Fog.2 mph94%30.18 "Hg1 mi
10:00 PM59 °FLight rain. Fog.3 mph94%30.18 "Hg2 mi
9:00 PM59 °FFog.No wind94%30.18 "Hg3 mi
8:00 PM59 °FLow clouds.2 mph94%30.18 "Hg4 mi
7:00 PM59 °FPartly cloudy.5 mph94%30.15 "Hg5 mi
6:00 PM64 °FPartly cloudy.6 mph73%30.12 "HgN/A
5:00 PM66 °FPartly cloudy.7 mph68%30.12 "HgN/A
4:00 PM68 °FPartly sunny.6 mph64%30.12 "HgN/A
3:00 PM70 °FPartly sunny.6 mph60%30.12 "HgN/A
Weather by CustomWeather, © 2016

See weather overviewHow to use our weather pages